| time (UTC) | temp C | wind direction | speed KPH | gust KPH | rain 1hr cm | rain 24hr cm | rain mn cm | humidity % | barometer mb |
| 20260505102044 | 11 | 246 | 4.8 | 8.0 | 0.00 | 0.00 | 0.00 | 83 | 1011.6 |
| 20260505101309 | 11 | 245 | 4.8 | 11.3 | 0.00 | 0.00 | 0.00 | 83 | 1011.5 |
| 20260505100804 | 11 | 246 | 4.8 | 11.3 | 0.00 | 0.00 | 0.00 | 84 | 1011.4 |
| 20260505100258 | 11 | 248 | 6.4 | 8.0 | 0.00 | 0.00 | 0.00 | 84 | 1011.6 |
| 20260505095758 | 11 | 240 | 4.8 | 8.0 | 0.00 | 0.00 | 0.00 | 84 | 1011.6 |
| 20260505095528 | 11 | 260 | 3.2 | 11.3 | 0.00 | 0.00 | 0.00 | 84 | 1011.6 |
| 20260505095024 | 11 | 244 | 6.4 | 12.9 | 0.00 | 0.00 | 0.00 | 84 | 1011.6 |
| 20260505094246 | 11 | 240 | 6.4 | 12.9 | 0.00 | 0.00 | 0.00 | 84 | 1011.7 |
| 20260505093742 | 11 | 236 | 6.4 | 11.3 | 0.00 | 0.00 | 0.00 | 84 | 1011.8 |
| 20260505093235 | 11 | 260 | 6.4 | 11.3 | 0.00 | 0.00 | 0.00 | 84 | 1011.7 |
| 20260505092727 | 11 | 259 | 4.8 | 11.3 | 0.00 | 0.00 | 0.00 | 84 | 1011.7 |
| 20260505092231 | 11 | 231 | 6.4 | 11.3 | 0.00 | 0.00 | 0.00 | 84 | 1011.6 |
| 20260505091725 | 11 | 251 | 6.4 | 11.3 | 0.00 | 0.00 | 0.00 | 83 | 1011.7 |
| 20260505091457 | 11 | 247 | 4.8 | 12.9 | 0.00 | 0.00 | 0.00 | 83 | 1011.8 |
| 20260505090954 | 11 | 243 | 6.4 | 12.9 | 0.00 | 0.00 | 0.00 | 84 | 1011.8 |
| 20260505090215 | 11 | 248 | 4.8 | 11.3 | 0.00 | 0.00 | 0.00 | 83 | 1011.7 |
| 20260505085708 | 11 | 239 | 4.8 | 11.3 | 0.00 | 0.00 | 0.00 | 84 | 1011.7 |
| 20260505085210 | 11 | 241 | 4.8 | 9.7 | 0.00 | 0.00 | 0.00 | 83 | 1011.7 |
| 20260505084702 | 11 | 233 | 4.8 | 9.7 | 0.00 | 0.00 | 0.00 | 83 | 1011.6 |
| 20260505084203 | 11 | 244 | 4.8 | 9.7 | 0.00 | 0.00 | 0.00 | 83 | 1011.7 |
| 20260505083658 | 11 | 238 | 4.8 | 9.7 | 0.00 | 0.00 | 0.00 | 83 | 1011.6 |
| 20260505083159 | 11 | 241 | 6.4 | 9.7 | 0.00 | 0.00 | 0.00 | 83 | 1011.7 |
| 20260505082651 | 11 | 239 | 4.8 | 9.7 | 0.00 | 0.00 | 0.00 | 83 | 1011.7 |
| 20260505082418 | 11 | 254 | 4.8 | 9.7 | 0.00 | 0.00 | 0.00 | 83 | 1011.7 |
| 20260505081912 | 11 | 245 | 4.8 | 9.7 | 0.00 | 0.00 | 0.00 | 82 | 1011.7 |
| 20260505081142 | 11 | 231 | 6.4 | 9.7 | 0.00 | 0.00 | 0.00 | 82 | 1011.8 |
| 20260505080636 | 11 | 240 | 4.8 | 8.0 | 0.00 | 0.00 | 0.00 | 82 | 1011.9 |
| 20260505080131 | 11 | 232 | 6.4 | 8.0 | 0.00 | 0.00 | 0.00 | 82 | 1011.9 |
| 20260505075631 | 11 | 234 | 4.8 | 8.0 | 0.00 | 0.00 | 0.00 | 82 | 1011.9 |
| 20260505075118 | 11 | 214 | 4.8 | 9.7 | 0.00 | 0.00 | 0.00 | 81 | 1011.8 |
| 20260505074611 | 11 | 255 | 4.8 | 11.3 | 0.00 | 0.00 | 0.00 | 81 | 1011.8 |
| 20260505074105 | 11 | 245 | 6.4 | 11.3 | 0.00 | 0.00 | 0.00 | 81 | 1011.9 |
| 20260505073602 | 11 | 233 | 6.4 | 11.3 | 0.00 | 0.00 | 0.00 | 81 | 1011.9 |
| 20260505073047 | 11 | 246 | 4.8 | 11.3 | 0.00 | 0.00 | 0.00 | 81 | 1012.0 |
| 20260505072548 | 11 | 203 | 6.4 | 11.3 | 0.00 | 0.00 | 0.00 | 81 | 1012.0 |
| 20260505072045 | 11 | 251 | 4.8 | 9.7 | 0.00 | 0.00 | 0.00 | 80 | 1011.9 |
| 20260505071543 | 11 | 248 | 3.2 | 9.7 | 0.00 | 0.00 | 0.00 | 80 | 1012.0 |
| 20260505071039 | 11 | 244 | 4.8 | 11.3 | 0.00 | 0.00 | 0.00 | 80 | 1012.0 |
| 20260505070532 | 11 | 243 | 6.4 | 11.3 | 0.00 | 0.00 | 0.00 | 80 | 1012.0 |
| 20260505070027 | 11 | 245 | 6.4 | 9.7 | 0.00 | 0.00 | 0.00 | 79 | 1012.1 |
| 20260505065519 | 11 | 250 | 4.8 | 9.7 | 0.00 | 0.00 | 0.00 | 79 | 1012.0 |
| 20260505065300 | 11 | 241 | 4.8 | 11.3 | 0.00 | 0.00 | 0.00 | 79 | 1012.1 |
| 20260505064515 | 11 | 253 | 6.4 | 11.3 | 0.00 | 0.00 | 0.00 | 79 | 1012.1 |
| 20260505064241 | 11 | 242 | 4.8 | 9.7 | 0.00 | 0.00 | 0.00 | 79 | 1012.1 |
| 20260505063512 | 11 | 242 | 4.8 | 11.3 | 0.00 | 0.00 | 0.00 | 78 | 1012.0 |
| 20260505063008 | 11 | 243 | 4.8 | 12.9 | 0.00 | 0.00 | 0.00 | 78 | 1012.0 |
| 20260505062736 | 11 | 242 | 6.4 | 12.9 | 0.00 | 0.00 | 0.00 | 78 | 1012.1 |
| 20260505062008 | 11 | 253 | 6.4 | 12.9 | 0.00 | 0.00 | 0.00 | 78 | 1012.0 |
| 20260505061517 | 11 | 241 | 6.4 | 12.9 | 0.00 | 0.00 | 0.00 | 78 | 1012.0 |
| 20260505061004 | 11 | 246 | 6.4 | 12.9 | 0.00 | 0.00 | 0.00 | 78 | 1012.1 |
| 20260505060459 | 11 | 221 | 6.4 | 9.7 | 0.00 | 0.00 | 0.00 | 78 | 1012.1 |
| 20260505055954 | 11 | 256 | 6.4 | 11.3 | 0.00 | 0.00 | 0.00 | 77 | 1012.1 |
| 20260505055446 | 11 | 249 | 6.4 | 11.3 | 0.00 | 0.00 | 0.00 | 77 | 1012.1 |
| 20260505054942 | 11 | 248 | 6.4 | 11.3 | 0.00 | 0.00 | 0.00 | 77 | 1012.0 |
| 20260505054435 | 11 | 250 | 6.4 | 11.3 | 0.00 | 0.00 | 0.00 | 77 | 1012.0 |
| 20260505053929 | 11 | 233 | 6.4 | 11.3 | 0.00 | 0.00 | 0.00 | 77 | 1012.0 |
| 20260505053441 | 12 | 243 | 6.4 | 11.3 | 0.00 | 0.00 | 0.00 | 76 | 1012.0 |
| 20260505053434 | 11 | 251 | 6.4 | 11.3 | 0.00 | 0.00 | 0.00 | 76 | 1012.0 |
| 20260505052649 | 12 | 248 | 6.4 | 12.9 | 0.00 | 0.00 | 0.00 | 76 | 1012.0 |
| 20260505051914 | 12 | 238 | 6.4 | 16.1 | 0.00 | 0.00 | 0.00 | 76 | 1012.0 |
| 20260505051413 | 12 | 248 | 6.4 | 16.1 | 0.00 | 0.00 | 0.00 | 75 | 1012.0 |
| 20260505050909 | 12 | 253 | 6.4 | 12.9 | 0.00 | 0.00 | 0.00 | 75 | 1012.1 |
| 20260505050412 | 12 | 245 | 8.0 | 14.5 | 0.00 | 0.00 | 0.00 | 75 | 1012.2 |
| 20260505041332 | 12 | 241 | 6.4 | 14.5 | 0.00 | 0.00 | 0.00 | 75 | 1012.2 |
| 20260505040829 | 12 | 234 | 6.4 | 14.5 | 0.00 | 0.00 | 0.00 | 75 | 1012.2 |
| 20260505040325 | 12 | 242 | 8.0 | 11.3 | 0.00 | 0.00 | 0.00 | 74 | 1012.1 |
| 20260505035823 | 12 | 246 | 6.4 | 11.3 | 0.00 | 0.00 | 0.00 | 74 | 1012.1 |
| 20260505035319 | 12 | 255 | 6.4 | 11.3 | 0.00 | 0.00 | 0.00 | 74 | 1012.1 |
| 20260505034814 | 12 | 246 | 4.8 | 11.3 | 0.00 | 0.00 | 0.00 | 74 | 1012.2 |
| 20260505034313 | 12 | 264 | 8.0 | 11.3 | 0.00 | 0.00 | 0.00 | 75 | 1012.2 |
| 20260505033809 | 12 | 254 | 6.4 | 14.5 | 0.00 | 0.00 | 0.00 | 74 | 1012.1 |
| 20260505033550 | 12 | 243 | 6.4 | 14.5 | 0.00 | 0.00 | 0.00 | 74 | 1012.2 |
| 20260505033034 | 12 | 236 | 6.4 | 11.3 | 0.00 | 0.00 | 0.00 | 74 | 1012.2 |
| 20260505032304 | 12 | 244 | 8.0 | 12.9 | 0.00 | 0.00 | 0.00 | 74 | 1012.2 |
| 20260505031759 | 12 | 266 | 6.4 | 12.9 | 0.00 | 0.00 | 0.00 | 74 | 1012.2 |
| 20260505031251 | 12 | 259 | 8.0 | 12.9 | 0.00 | 0.00 | 0.00 | 74 | 1012.3 |
| 20260505030751 | 12 | 255 | 8.0 | 12.9 | 0.00 | 0.00 | 0.00 | 74 | 1012.2 |
| 20260505030747 | 12 | 266 | 6.4 | 12.9 | 0.00 | 0.00 | 0.00 | 74 | 1012.3 |
| 20260505025736 | 12 | 250 | 8.0 | 12.9 | 0.00 | 0.00 | 0.00 | 73 | 1012.2 |
| 20260505025230 | 12 | 243 | 8.0 | 12.9 | 0.00 | 0.00 | 0.00 | 74 | 1012.2 |
| 20260505024725 | 12 | 242 | 6.4 | 14.5 | 0.00 | 0.00 | 0.00 | 73 | 1012.2 |
| 20260505024448 | 12 | 245 | 8.0 | 14.5 | 0.00 | 0.00 | 0.00 | 73 | 1012.2 |
| 20260505023712 | 12 | 255 | 8.0 | 12.9 | 0.00 | 0.00 | 0.00 | 73 | 1012.0 |
| 20260505023212 | 12 | 252 | 8.0 | 12.9 | 0.00 | 0.00 | 0.00 | 73 | 1012.2 |
| 20260505022706 | 12 | 242 | 9.7 | 14.5 | 0.00 | 0.00 | 0.00 | 73 | 1012.3 |
| 20260505022207 | 12 | 248 | 8.0 | 16.1 | 0.00 | 0.00 | 0.00 | 73 | 1012.2 |
| 20260505021704 | 12 | 244 | 8.0 | 16.1 | 0.00 | 0.00 | 0.00 | 73 | 1012.3 |
| 20260505021202 | 12 | 258 | 6.4 | 14.5 | 0.00 | 0.00 | 0.00 | 72 | 1012.2 |
| 20260505020655 | 12 | 239 | 9.7 | 14.5 | 0.00 | 0.00 | 0.00 | 72 | 1012.2 |
| 20260505020153 | 12 | 232 | 8.0 | 14.5 | 0.00 | 0.00 | 0.00 | 72 | 1012.2 |
| 20260505015645 | 13 | 238 | 6.4 | 16.1 | 0.00 | 0.00 | 0.00 | 72 | 1012.2 |
| 20260505015145 | 13 | 240 | 8.0 | 16.1 | 0.00 | 0.00 | 0.00 | 71 | 1012.2 |
| 20260505015138 | 13 | 233 | 9.7 | 16.1 | 0.00 | 0.00 | 0.00 | 71 | 1012.2 |
| 20260505014125 | 13 | 239 | 8.0 | 16.1 | 0.00 | 0.00 | 0.00 | 70 | 1012.2 |
| 20260505013623 | 13 | 238 | 8.0 | 14.5 | 0.00 | 0.00 | 0.00 | 70 | 1012.0 |
| 20260505013123 | 13 | 245 | 8.0 | 12.9 | 0.00 | 0.00 | 0.00 | 69 | 1012.0 |
| 20260505012617 | 13 | 280 | 6.4 | 12.9 | 0.00 | 0.00 | 0.00 | 69 | 1012.0 |
| 20260505012109 | 13 | 243 | 6.4 | 14.5 | 0.00 | 0.00 | 0.00 | 68 | 1011.8 |
| 20260505011610 | 13 | 244 | 8.0 | 14.5 | 0.00 | 0.00 | 0.00 | 67 | 1011.8 |
| 20260505011118 | 13 | 273 | 6.4 | 17.7 | 0.00 | 0.00 | 0.00 | 65 | 1011.6 |
| 20260505011113 | 13 | 252 | 8.0 | 12.9 | 0.00 | 0.00 | 0.00 | 67 | 1011.7 |
| 20260505010100 | 13 | 254 | 8.0 | 22.5 | 0.00 | 0.00 | 0.00 | 65 | 1011.5 |
| 20260505005603 | 13 | 234 | 8.0 | 22.5 | 0.00 | 0.00 | 0.00 | 64 | 1011.2 |
| 20260505005057 | 14 | 254 | 8.0 | 20.9 | 0.00 | 0.00 | 0.00 | 63 | 1011.1 |
| 20260505004552 | 14 | 242 | 8.0 | 19.3 | 0.00 | 0.00 | 0.00 | 62 | 1010.9 |
| 20260505004044 | 14 | 254 | 8.0 | 17.7 | 0.00 | 0.00 | 0.00 | 61 | 1010.8 |
| 20260505003538 | 14 | 226 | 6.4 | 17.7 | 0.00 | 0.00 | 0.00 | 60 | 1010.8 |
| 20260505003324 | 14 | 213 | 9.7 | 24.1 | 0.00 | 0.00 | 0.00 | 60 | 1010.6 |
| 20260505002525 | 14 | 176 | 9.7 | 24.1 | 0.00 | 0.00 | 0.00 | 58 | 1010.5 |
| 20260505002024 | 15 | 255 | 8.0 | 17.7 | 0.00 | 0.00 | 0.00 | 57 | 1010.5 |
| 20260505001514 | 15 | 236 | 9.7 | 17.7 | 0.00 | 0.00 | 0.00 | 56 | 1010.4 |
| 20260505001014 | 15 | 227 | 9.7 | 17.7 | 0.00 | 0.00 | 0.00 | 55 | 1010.4 |
| 20260505000504 | 15 | 259 | 9.7 | 16.1 | 0.00 | 0.00 | 0.00 | 55 | 1010.3 |
| 20260505000000 | 15 | 247 | 8.0 | 16.1 | 0.00 | 0.00 | 0.00 | 55 | 1010.3 |
| 20260504235454 | 15 | 262 | 9.7 | 20.9 | 0.00 | 0.00 | 0.00 | 54 | 1010.2 |
| 20260504234945 | 15 | 243 | 9.7 | 20.9 | 0.00 | 0.00 | 0.00 | 54 | 1010.1 |
| 20260504234444 | 15 | 242 | 8.0 | 17.7 | 0.00 | 0.00 | 0.00 | 54 | 1010.2 |
| 20260504233941 | 15 | 189 | 8.0 | 17.7 | 0.00 | 0.00 | 0.00 | 54 | 1010.1 |
| 20260504233442 | 15 | 243 | 8.0 | 17.7 | 0.00 | 0.00 | 0.00 | 53 | 1010.0 |
| 20260504232937 | 16 | 222 | 6.4 | 17.7 | 0.00 | 0.00 | 0.00 | 52 | 1010.0 |
| 20260504232437 | 16 | 224 | 6.4 | 19.3 | 0.00 | 0.00 | 0.00 | 52 | 1009.9 |
| 20260504231930 | 16 | 173 | 8.0 | 19.3 | 0.00 | 0.00 | 0.00 | 50 | 1009.9 |
| 20260504231710 | 16 | 243 | 6.4 | 19.3 | 0.00 | 0.00 | 0.00 | 51 | 1009.8 |
| 20260504230940 | 16 | 238 | 11.3 | 19.3 | 0.00 | 0.00 | 0.00 | 50 | 1009.7 |
| 20260504230425 | 16 | 214 | 9.7 | 25.7 | 0.00 | 0.00 | 0.00 | 50 | 1009.5 |
| 20260504225922 | 17 | 238 | 9.7 | 25.7 | 0.00 | 0.00 | 0.00 | 50 | 1009.5 |
| 20260504225431 | 17 | 219 | 9.7 | 22.5 | 0.00 | 0.00 | 0.00 | 49 | 1009.4 |
| 20260504225427 | 17 | 249 | 11.3 | 22.5 | 0.00 | 0.00 | 0.00 | 49 | 1009.5 |
| 20260504224646 | 17 | 256 | 8.0 | 22.5 | 0.00 | 0.00 | 0.00 | 49 | 1009.2 |
| 20260504223904 | 17 | 228 | 9.7 | 20.9 | 0.00 | 0.00 | 0.00 | 49 | 1009.2 |
| 20260504223358 | 17 | 226 | 9.7 | 20.9 | 0.00 | 0.00 | 0.00 | 49 | 1009.0 |
| 20260504222859 | 17 | 235 | 9.7 | 20.9 | 0.00 | 0.00 | 0.00 | 49 | 1009.1 |
| 20260504222352 | 18 | 181 | 9.7 | 35.4 | 0.00 | 0.00 | 0.00 | 49 | 1008.9 |
| 20260504221852 | 18 | 245 | 14.5 | 35.4 | 0.00 | 0.00 | 0.00 | 48 | 1008.9 |
| 20260504221350 | 18 | 254 | 8.0 | 19.3 | 0.00 | 0.00 | 0.00 | 47 | 1008.8 |
| 20260504220841 | 18 | 250 | 9.7 | 17.7 | 0.00 | 0.00 | 0.00 | 47 | 1008.9 |
| 20260504220336 | 18 | 227 | 9.7 | 19.3 | 0.00 | 0.00 | 0.00 | 46 | 1008.8 |
| 20260504215830 | 18 | 248 | 11.3 | 20.9 | 0.00 | 0.00 | 0.00 | 45 | 1008.9 |
| 20260504215325 | 18 | 236 | 9.7 | 20.9 | 0.00 | 0.00 | 0.00 | 45 | 1008.9 |
| 20260504214826 | 18 | 193 | 9.7 | 17.7 | 0.00 | 0.00 | 0.00 | 45 | 1008.9 |
| 20260504214319 | 18 | 247 | 9.7 | 17.7 | 0.00 | 0.00 | 0.00 | 45 | 1008.9 |
| 20260504213819 | 18 | 238 | 11.3 | 16.1 | 0.00 | 0.00 | 0.00 | 44 | 1008.9 |
| 20260504213315 | 19 | 263 | 9.7 | 20.9 | 0.00 | 0.00 | 0.00 | 43 | 1008.8 |
| 20260504212809 | 19 | 236 | 9.7 | 24.1 | 0.00 | 0.00 | 0.00 | 43 | 1008.8 |
| 20260504212309 | 19 | 207 | 9.7 | 27.4 | 0.00 | 0.00 | 0.00 | 44 | 1008.8 |
| 20260504211804 | 19 | 218 | 9.7 | 29.0 | 0.00 | 0.00 | 0.00 | 42 | 1008.7 |
| 20260504211257 | 20 | 246 | 9.7 | 29.0 | 0.00 | 0.00 | 0.00 | 40 | 1008.8 |
| 20260504210757 | 19 | 245 | 11.3 | 20.9 | 0.00 | 0.00 | 0.00 | 40 | 1008.7 |
| 20260504210253 | 20 | 249 | 9.7 | 20.9 | 0.00 | 0.00 | 0.00 | 40 | 1008.7 |
| 20260504205753 | 20 | 230 | 9.7 | 19.3 | 0.00 | 0.00 | 0.00 | 41 | 1008.7 |
| 20260504205249 | 20 | 226 | 8.0 | 24.1 | 0.00 | 0.00 | 0.00 | 40 | 1008.7 |
| 20260504205028 | 20 | 271 | 11.3 | 24.1 | 0.00 | 0.00 | 0.00 | 41 | 1008.6 |
| 20260504204242 | 20 | 224 | 9.7 | 17.7 | 0.00 | 0.00 | 0.00 | 40 | 1008.6 |
| 20260504203750 | 20 | 240 | 9.7 | 16.1 | 0.00 | 0.00 | 0.00 | 38 | 1008.6 |
| 20260504203744 | 20 | 235 | 9.7 | 17.7 | 0.00 | 0.00 | 0.00 | 40 | 1008.6 |
| 20260504203008 | 20 | 262 | 9.7 | 17.7 | 0.00 | 0.00 | 0.00 | 38 | 1008.5 |
| 20260504202226 | 20 | 246 | 9.7 | 19.3 | 0.00 | 0.00 | 0.00 | 38 | 1008.5 |
| 20260504201720 | 20 | 259 | 12.9 | 19.3 | 0.00 | 0.00 | 0.00 | 37 | 1008.5 |
| 20260504201215 | 20 | 257 | 8.0 | 17.7 | 0.00 | 0.00 | 0.00 | 38 | 1008.5 |
| 20260504200708 | 20 | 228 | 11.3 | 20.9 | 0.00 | 0.00 | 0.00 | 37 | 1008.7 |
| 20260504200204 | 20 | 231 | 11.3 | 20.9 | 0.00 | 0.00 | 0.00 | 39 | 1008.7 |
| 20260504195656 | 20 | 248 | 12.9 | 30.6 | 0.00 | 0.00 | 0.00 | 39 | 1008.6 |
| 20260504195156 | 20 | 262 | 14.5 | 30.6 | 0.00 | 0.00 | 0.00 | 38 | 1008.5 |
| 20260504194653 | 20 | 219 | 8.0 | 25.7 | 0.00 | 0.00 | 0.00 | 39 | 1008.6 |
| 20260504194149 | 20 | 221 | 11.3 | 24.1 | 0.00 | 0.00 | 0.00 | 37 | 1008.5 |
| 20260504193645 | 21 | 231 | 12.9 | 24.1 | 0.00 | 0.00 | 0.00 | 36 | 1008.6 |
| 20260504193141 | 21 | 231 | 9.7 | 16.1 | 0.00 | 0.00 | 0.00 | 35 | 1008.4 |
| 20260504192637 | 21 | 243 | 8.0 | 19.3 | 0.00 | 0.00 | 0.00 | 32 | 1008.7 |
| 20260504192414 | 21 | 230 | 9.7 | 25.7 | 0.00 | 0.00 | 0.00 | 31 | 1008.6 |
| 20260504191631 | 21 | 258 | 8.0 | 25.7 | 0.00 | 0.00 | 0.00 | 32 | 1008.6 |
| 20260504191159 | 21 | 199 | 8.0 | 20.9 | 0.00 | 0.00 | 0.00 | 31 | 1008.7 |
| 20260504191148 | 21 | 258 | 12.9 | 22.5 | 0.00 | 0.00 | 0.00 | 31 | 1008.6 |
| 20260504190353 | 21 | 297 | 11.3 | 20.9 | 0.00 | 0.00 | 0.00 | 32 | 1008.6 |
| 20260504185621 | 21 | 240 | 9.7 | 19.3 | 0.00 | 0.00 | 0.00 | 31 | 1008.7 |
| 20260504185114 | 21 | 262 | 11.3 | 25.7 | 0.00 | 0.00 | 0.00 | 30 | 1008.7 |
| 20260504184842 | 21 | 274 | 11.3 | 27.4 | 0.00 | 0.00 | 0.00 | 32 | 1008.7 |
| 20260504184104 | 21 | 260 | 11.3 | 27.4 | 0.00 | 0.00 | 0.00 | 32 | 1008.6 |
| 20260504183835 | 21 | 308 | 11.3 | 20.9 | 0.00 | 0.00 | 0.00 | 32 | 1008.7 |
| 20260504183057 | 21 | 231 | 6.4 | 20.9 | 0.00 | 0.00 | 0.00 | 34 | 1008.7 |
| 20260504182554 | 21 | 202 | 8.0 | 19.3 | 0.00 | 0.00 | 0.00 | 32 | 1008.7 |
| 20260504182054 | 21 | 243 | 11.3 | 17.7 | 0.00 | 0.00 | 0.00 | 31 | 1008.8 |
| 20260504181548 | 21 | 244 | 6.4 | 19.3 | 0.00 | 0.00 | 0.00 | 32 | 1008.8 |
| 20260504181043 | 21 | 240 | 11.3 | 19.3 | 0.00 | 0.00 | 0.00 | 31 | 1008.8 |
| 20260504180543 | 21 | 255 | 8.0 | 17.7 | 0.00 | 0.00 | 0.00 | 32 | 1009.1 |
| 20260504180036 | 21 | 250 | 9.7 | 25.7 | 0.00 | 0.00 | 0.00 | 32 | 1009.2 |
| 20260504175534 | 21 | 241 | 11.3 | 25.7 | 0.00 | 0.00 | 0.00 | 30 | 1009.1 |
| 20260504175027 | 21 | 243 | 12.9 | 24.1 | 0.00 | 0.00 | 0.00 | 30 | 1009.0 |
| 20260504174755 | 21 | 232 | 9.7 | 20.9 | 0.00 | 0.00 | 0.00 | 33 | 1009.0 |
| 20260504174019 | 21 | 237 | 8.0 | 20.9 | 0.00 | 0.00 | 0.00 | 32 | 1009.0 |
| 20260504173518 | 21 | 245 | 9.7 | 19.3 | 0.00 | 0.00 | 0.00 | 31 | 1008.9 |
| 20260504173016 | 21 | 263 | 9.7 | 19.3 | 0.00 | 0.00 | 0.00 | 32 | 1009.1 |
| 20260504172508 | 21 | 254 | 9.7 | 17.7 | 0.00 | 0.00 | 0.00 | 33 | 1009.2 |
| 20260504172010 | 21 | 234 | 9.7 | 17.7 | 0.00 | 0.00 | 0.00 | 32 | 1009.1 |
| 20260504171506 | 21 | 245 | 9.7 | 24.1 | 0.00 | 0.00 | 0.00 | 32 | 1009.0 |
| 20260504170959 | 21 | 277 | 9.7 | 24.1 | 0.00 | 0.00 | 0.00 | 31 | 1009.0 |
| 20260504170510 | 21 | 267 | 9.7 | 20.9 | 0.00 | 0.00 | 0.00 | 34 | 1009.1 |
| 20260504160415 | 20 | 257 | 9.7 | 19.3 | 0.00 | 0.00 | 0.00 | 37 | 1009.9 |
| 20260504150838 | 20 | 246 | 6.4 | 14.5 | 0.00 | 0.00 | 0.00 | 36 | 1010.5 |
| 20260504150332 | 20 | 304 | 6.4 | 14.5 | 0.00 | 0.00 | 0.00 | 38 | 1010.5 |
| 20260504140756 | 18 | 247 | 4.8 | 12.9 | 0.00 | 0.00 | 0.00 | 41 | 1011.2 |
| 20260504140531 | 18 | 257 | 4.8 | 12.9 | 0.00 | 0.00 | 0.00 | 41 | 1011.4 |
| 20260504130709 | 16 | 285 | 8.0 | 16.1 | 0.00 | 0.00 | 0.00 | 43 | 1011.6 |
| 20260504130159 | 16 | 257 | 6.4 | 16.1 | 0.00 | 0.00 | 0.00 | 44 | 1011.6 |
| 20260504120117 | 12 | 274 | 6.4 | 16.1 | 0.00 | 0.00 | 0.00 | 51 | 1011.8 |
| 20260504110504 | 8 | 238 | 4.8 | 9.7 | 0.00 | 0.00 | 0.00 | 60 | 1012.1 |